Weather in Uteshevo

Russia / Kaluga Oblast     54°31′07″N   35°41′47″E
temp.,
°C
wind,
m/s
gust,
m/s
humid.,
%
clouds,
%
prec.,
mm/h
press.,
hPa
HPBL,
m
8 may, sat
sat800:00+8s41275100 0.1 1011343
03:00+7sse71592100 2.9 1008831
06:00+8sse61396100 5.4 1007728
09:00+8sse61296100 11.3 1005801
12:00+9sse3797100 5.8 1003452
15:00+9wnw1297100 10.3 1002121
18:00+9nw2597100 1.1 1001311
21:00+6nw81393100 2.2 1003858
9 may, sun
sun900:00+4nw81497100 4.1 10061025
03:00+4nw81592100 6.6 1009854
06:00+3wnw61289100 0.1 1012746
09:00+4nw71183100 0.1 1015993
12:00+7nw61066100 0.0 10171457
15:00+9nw5105584 0.1 10191815
18:00+10nw59585 0.1 10211403
21:00+5wnw34735 0.1 102449
10 may, mon
mon1000:00+3nw37771 0.0 1026102
03:00+2nnw22770 0.0 102821
06:00+3nw22765 0.0 103039
09:00+9n12565 0.0 1030347
12:00+13nnw22445 0.0 10301365
15:00+15nw12413 0.0 10291683
18:00+15ene12500 0.0 1029723
21:00+9e22642 0.0 103010
11 may, tue
tue1100:00+6ese22742 0.0 103012
03:00+5ne22730 0.0 103117
06:00+5ene35770 0.0 1031117
09:00+12ene58590 0.0 1030588
12:00+15ene68470 0.0 10291105
15:00+17e67470 0.0 10271111
18:00+16e58635 0.0 1027744
21:00+11ene367893 0.0 102777
12 may, wed
wed1200:00+9ne35855 0.0 102686
03:00+8ne411915 0.0 1025233
06:00+8ene4119273 0.0 1025310
09:00+11ene41190100 0.1 1024470
12:00+10e3897100 1.1 1024422
15:00+12ese5790100 1.5 1023575
18:00+14ese358799 0.1 1022581
21:00+12ene269890 0.8 1021233